Regional Weather Roundup
Issued by NWS

Home | Current Version | Previous Version | Text Only | Print | Product List | Glossary Off
Versions: 1 2 3 4 5 6 7 8 9 10 11 12 13 14 15 16 17 18 19 20 21 22 23 24 25 26 27 28 29 30 31 32 33 34 35 36 37 38 39 40 41 42 43 44 45 46 47 48 49 50

827
ASUS43 KMKX 140411
RWRWI

WISCONSIN REGIONAL WEATHER ROUNDUP
NATIONAL WEATHER SERVICE MILWAUKEE/SULLIVAN WI
1000 PM CST WED DEC 13 2017

NOTE: "FAIR" INDICATES FEW OR NO CLOUDS BELOW 12,000 FEET WITH NO
SIGNIFICANT WEATHER AND/OR OBSTRUCTIONS TO VISIBILITY.

WIZ001-002-006>008-014>016-023>028-140500-
NORTHWEST WISCONSIN

CITY           SKY/WX    TMP DP  RH WIND       PRES   REMARKS
SUPERIOR ARPT  CLOUDY    19  13  79 N3        29.95R
ASHLAND        CLOUDY    16  11  80 CALM      29.92R
HAYWARD        CLOUDY    19  12  74 CALM      29.89R
SIREN          MOCLDY    16  15  94 CALM      29.92R
CUMBERLAND     CLOUDY    18  14  86 CALM      29.89R
RICE LAKE      MOCLDY    17  15  90 CALM      29.91S
CHETEK         CLOUDY    17  14  89 N3        29.90F
LADYSMITH      FLURRIES  16  13  90 NW6       29.89R WCI   7
EAU CLAIRE     CLEAR     13   9  84 N5        29.90R WCI   5
MENOMONIE      CLEAR     14  11  87 CALM      29.91R
NEW RICHMOND   CLEAR     10   7  87 CALM      29.92R
OSCEOLA        FLURRIES  19  16  88 CALM      29.96R
$$

WIZ003>005-009-010-017-018-140500-
NORTH CENTRAL WISCONSIN

CITY           SKY/WX    TMP DP  RH WIND       PRES   REMARKS
MANITOWISH WTR LGT SNOW  15  14  95 N3        29.81R VSB 3/4
ARBOR VITAE    FLURRIES  17  14  87 N8        29.80S WCI   7
WOODRUFF       FLURRIES  17  14  87 N8        29.80S WCI   7
RHINELANDER    FLURRIES  16  12  84 NW3       29.80R
EAGLE RIVER    LGT SNOW  14  10  83 N3        29.78S
LAND O LAKES   LGT SNOW  15  12  88 N5        29.80S WCI   8
PHILLIPS       CLOUDY    11  10  96 CALM      29.83R
TOMAHAWK       CLOUDY    13  10  89 CALM      29.82S
MEDFORD        MOCLDY     9   7  92 N3        29.83S
MERRILL        CLOUDY    12  10  88 N3        29.83R
$$

WIZ029-030-035-036-043>047-140500-
CENTRAL WISCONSIN

CITY           SKY/WX    TMP DP  RH WIND       PRES   REMARKS
WAUSAU         CLOUDY    13  10  88 VRB6      29.83R WCI   4
MOSINEE        PTCLDY    12  12 100 N8        29.84R WCI   1
MARSHFIELD     CLEAR     10   7  87 N8        29.83R WCI  -2
STEVENS POINT  CLEAR     11  10  94 CALM      29.85R
WAUPACA        CLEAR     16  10  77 CALM      29.85R
WAUTOMA        CLEAR     16  10  77 N10       29.85R WCI   4
WISC RAPIDS    MOCLDY    14  11  87 N6        29.86R WCI   5
CAMP DOUGLAS   MOCLDY    18  14  86 NW6       29.86R WCI   9
$$

WIZ011>013-019>022-031-037>040-048>050-140500-
NORTHEAST WISCONSIN

CITY           SKY/WX    TMP DP  RH WIND       PRES   REMARKS
ANTIGO         PTCLDY     8   7  94 N5        29.81R WCI   0
SHAWANO        FLURRIES  15  11  82 N3        29.83R
OCONTO         PTCLDY    10   6  81 NW3       29.84R
STURGEON BAY   FLURRIES  17  11  77 NE9       29.80R WCI   6
GREEN BAY      PTCLDY    14   6  70 N14       29.83R WCI  -1
MANITOWOC      CLEAR     16   7  67 N15G21    29.78R WCI   1
APPLETON       PTCLDY    14   7  73 N13       29.80R WCI   0
CLINTONVILLE   PTCLDY    14   9  79 CALM      29.84R
OSHKOSH        MOCLDY    16   9  74 N17       29.81R WCI   0
$$

WIZ032>034-041-042-053>061-140500-
SOUTHWEST WISCONSIN

CITY           SKY/WX    TMP DP  RH WIND       PRES   REMARKS
LA CROSSE      CLEAR     20  13  74 N12       29.90R WCI   8
SPARTA         CLOUDY    18  14  85 N7        29.89R WCI   9
VIROQUA        MOCLDY    18  15  88 N10       29.83R WCI   6
BOSCOBEL       CLOUDY    23  13  65 VRB7      29.89R WCI  15
PRAIRIE DU CHI CLEAR     23  13  65 N9        29.88R WCI  13
PLATTEVILLE    CLOUDY    23  16  75 N13G18    29.83R WCI  11
$$

WIZ056-057-062-063-064-067-068-140500-
SOUTH CENTRAL WISCONSIN

CITY           SKY/WX    TMP DP  RH WIND       PRES   REMARKS
REEDSBURG      MOCLDY    19  15  85 N10       29.84R WCI   7
BARABOO/DELLS  CLEAR     19  15  84 N9        29.83R WCI   7
LONE ROCK      CLOUDY    22  16  78 N12       29.86R WCI  10
MINERAL POINT  CLOUDY    25  19  80 N14       29.82R WCI  13
MADISON        MOCLDY    20  15  81 N14G23    29.80R WCI   7
MIDDLETON      CLOUDY    24  18  77 NE15G21   29.82R WCI  11
WATERTOWN      MOCLDY    19  15  86 N13G23    29.78R WCI   6
MONROE         CLOUDY    25  18  74 N13G21    29.78R WCI  13
JANESVILLE     CLOUDY    27  19  74 N14       29.77R WCI  15
$$

WIZ051-052-058>065-066-070>072-140500-
SOUTHEAST WISCONSIN

CITY           SKY/WX    TMP DP  RH WIND       PRES   REMARKS
MILWAUKEE      LGT SNOW  26  22  84 N17G29    29.73R VSB 1   WCI  13
WAUKESHA       FLURRIES  21  18  86 N14G21    29.75R WCI   8
MILWAUKEE/TIMM FLURRIES  23  18  80 N17       29.75R WCI   9
RACINE         CLOUDY    28  19  69 N18G37    29.73R WCI  15
BURLINGTON     FLURRIES  24  22  90 N12       29.73R WCI  13
KENOSHA        LGT SNOW  26  22  84 N13G21    29.71R FOG     WCI  15
FOND DU LAC    CLEAR     17   8  67 N20G25    29.81R WCI   1
SHEBOYGAN      CLEAR     18  11  74 N17G25    29.75R WCI   3
WEST BEND      PTCLDY    19  16  86 N14G20    29.75R WCI   6
JUNEAU         CLEAR     16  11  78 N14G23    29.80R WCI   2
$$

LSZ147-162-140500-
LAKE SUPERIOR

STATION/POSITION TIME  TEMP    WIND        PRES    WAVE
                       AIR SEA DIR/SP/G            HT/PER
                 (UTC) (F)     (DEG/KT/KT) (MB)    (FT/S)
DEVILS ISLAND    0400   18     360/ 14/ 17 1014.7R
SAXON HARBOR     0330   23                 1012.2R
$$

LMZ867-665-643>646-140500-
LAKE MICHIGAN

STATION/POSITION TIME  TEMP    WIND        PRES    WAVE
                       AIR SEA DIR/SP/G            HT/PER
                 (UTC) (F)     (DEG/KT/KT) (MB)    (FT/S)
NORTHPORT PIER   0349   19      10/ 12/ 23 1009.1R
KEWAUNEE LAKESHO 0342   17     360/ 12/ 19 1007.9R
SHEBOYGAN LAKESH 0400   22     350/ 25/ 27 1008.4R
PORT WASHINGTON  0340   22     340/  8/ 16 1008.5R
MILWAUKEE LAKESH 0350   25     340/ 18/ 21   N/A
KENOSHA   LAKESH 0400   29      10/ 23/ 30 1006.1
$$

TC  - TEMPERATURE IN CELSIUS
VSB - VISIBILITY IN STATUTE MILES
WCI - WIND CHILL INDEX
HX  - HEAT INDEX





USA.gov is the U.S. government's official web portal to all federal, state and local government web resources and services.